Home   Weather   Balurghat   Past weeks

Flag for India Past Weather in Balurghat, West Bengal, India — Yesterday and Last 2 Weeks

Now
81 °F

More clouds than sun.


Feels Like: 88 °F
Forecast: 76 / 90 °F
Wind: No wind

Location: Lucknow / Amausi

Current Time: Sep 26, 2016 at 9:15:26 AM

Latest Report: Sep 26, 2016 at 8:30 AM


Visibility: 2 mi

Pressure: 29.74 "Hg

Humidity: 94%

Dew Point: 79 °F

Location of BalurghatLocation

Past Weather in Balurghat — Graph

°F

Balurghat Temperature Yesterday

Maximum temperature yesterday: 91 °F (at 3:00 PM)
Minimum temperature yesterday: 77 °F (at 4:00 AM)
Average temperature yesterday: 84 °F

High & Low Weather Summary for the Past Weeks

 TemperatureHumidityPressure
High99 °F (Sep 11, 2:30 PM)100% (Sep 12, 5:00 AM)29.83 "Hg (Sep 12, 5:00 AM)
Low77 °F (Sep 14, 12:00 AM)53% (Sep 11, 2:30 PM)29.53 "Hg (Sep 20, 4:30 PM)
Average85 °F87%29.67 "Hg
* Reported Sep 11 7:30 AM — Sep 26 8:00 AM, Balurghat, Weather by CustomWeather, © 2016

Note: Actual official high and low records may vary slightly from our data, if they occured in-between our weather recording intervals... More about our weather records

Advertising

Balurghat Weather History for the Previous 24 Hours

Scroll right to see more
 ConditionsComfort  
Time TempWeatherWind HumidityBarometerVisibility
8:00 AM
Mon, Sep 26
81 °FBroken clouds.No wind94%29.74 "Hg2 mi
7:30 AM79 °FBroken clouds.5 mph94%29.71 "Hg2 mi
7:00 AM79 °FBroken clouds.5 mph94%29.71 "Hg2 mi
6:30 AM79 °FBroken clouds.7 mph94%29.71 "Hg2 mi
6:00 AM79 °FPassing clouds.6 mph94%29.71 "Hg2 mi
5:30 AM79 °FPassing clouds.6 mph94%29.71 "Hg2 mi
5:00 AM79 °FPassing clouds.6 mph94%29.68 "Hg2 mi
4:00 AM79 °FPassing clouds.7 mph94%29.68 "Hg2 mi
3:00 AM79 °FPassing clouds.7 mph94%29.68 "Hg2 mi
2:00 AM79 °FPassing clouds.5 mph94%29.68 "Hg2 mi
12:00 AM81 °FPassing clouds.No wind89%29.71 "Hg2 mi
11:00 PM
Sun, Sep 25
81 °FPassing clouds.2 mph89%29.71 "Hg2 mi
10:00 PM82 °FPassing clouds.3 mph84%29.68 "Hg2 mi
9:00 PM82 °FPassing clouds.3 mph84%29.68 "Hg2 mi
8:00 PM82 °FPartly cloudy.6 mph89%29.65 "Hg2 mi
7:30 PM84 °FPartly cloudy.No wind84%29.65 "Hg2 mi
7:00 PM84 °FPartly cloudy.No wind84%29.62 "Hg2 mi
6:30 PM86 °FPartly cloudy.No wind79%29.62 "Hg3 mi
6:00 PM88 °FBroken clouds.No wind75%29.62 "Hg3 mi
5:30 PM88 °FScattered clouds.No wind70%29.59 "Hg3 mi
5:00 PM90 °FScattered clouds.3 mph71%29.59 "Hg3 mi
4:30 PM90 °FScattered clouds.3 mph71%29.59 "Hg3 mi
4:00 PM91 °FScattered clouds.6 mph67%29.59 "Hg3 mi
3:30 PM91 °FScattered clouds.5 mph67%29.59 "Hg3 mi
3:00 PM91 °FScattered clouds.5 mph67%29.59 "Hg3 mi
2:00 PM90 °FScattered clouds.6 mph71%29.62 "Hg3 mi
1:30 PM90 °FScattered clouds.6 mph71%29.65 "Hg3 mi
1:00 PM88 °FScattered clouds.7 mph75%29.65 "Hg3 mi
12:30 PM90 °FScattered clouds.5 mph71%29.68 "Hg3 mi
12:00 PM90 °FScattered clouds.5 mph75%29.68 "Hg3 mi
11:00 AM88 °FScattered clouds.2 mph75%29.71 "Hg3 mi
10:30 AM88 °FScattered clouds.2 mph75%29.71 "Hg3 mi
10:00 AM86 °FScattered clouds.2 mph79%29.71 "Hg2 mi
9:30 AM84 °FBroken clouds.3 mph84%29.71 "Hg2 mi
9:00 AM82 °FBroken clouds.2 mph89%29.71 "Hg2 mi
Weather by CustomWeather, © 2016

See weather overviewHow to use our weather pages